Location: Namasale
(1.5000°N, 32.6167°E)
Time: 20:04:14
(UTC+00:00)

Envisat - Pass Details

Date: 10 December 2021
Orbit: 764 x 766 km, 98.2° (Epoch: 25 January)

Event Time Altitude Azimuth Distance (km) Brightness Sun altitude
Rises 02:00:35 0° 23° (NNE) 3,214 6.2 -23.9°
Reaches altitude 10° 02:02:58 10° 30° (NNE) 2,291 5.5 -23.4°
Maximum altitude 02:07:47 45° 102° (ESE) 1,032 4.1 -22.3°
Drops below altitude 10° 02:12:36 10° 174° (S) 2,298 5.8 -21.2°
Sets 02:14:59 0° 180° (S) 3,225 6.6 -20.6°
